Theta_e
303 300 297 299 300 301 299 297 298 303 308 313 315 317 320 324 324 323 321 322 324 325 333 337 337 339 340 341 341 342 341 341 340 341 340 339 339 342 342 343 345 346 347 347
299 296 303 303 302 301 298 297 298 303 308 312 314 315 320 322 323 324 323 323 324 325 328 332 335 337 339 340 340 340 341 340 340 340 339 341 341 342 344 343 346 346 345 346
297 301 305 303 300 299 296 296 298 299 305 316 312 308 310 318 324 325 325 326 325 325 326 330 333 335 338 338 339 340 339 339 339 339 340 340 342 341 340 341 343 346 344 346
299 304 304 301 299 300 294 302 302 301 297 293 311 295 298 306 314 321 324 323 324 325 326 330 333 334 337 339 340 340 339 338 338 339 339 339 337 336 339 341 343 345 346 345
300 301 300 299 302 302 300 305 302 302 295 293 296 293 296 308 307 313 321 324 324 326 326 328 332 335 338 340 340 339 338 337 337 338 340 338 337 338 338 340 343 344 344 346
302 304 303 302 304 304 305 300 298 295 293 288 291 293 295 299 305 311 321 324 325 325 326 328 332 336 337 340 340 340 337 335 336 336 338 338 338 336 335 337 339 342 343 346
299 301 304 305 300 301 298 293 289 288 287 287 290 293 296 303 306 312 318 322 324 327 325 327 329 333 337 338 340 340 338 335 334 336 335 338 339 337 335 336 337 340 342 346
292 294 299 303 301 299 296 294 289 284 285 288 290 289 296 305 312 316 319 323 325 325 327 327 330 333 336 339 340 340 338 337 335 335 335 336 339 336 335 339 339 338 340 346
291 294 303 305 304 304 296 291 294 288 284 286 289 294 301 307 311 317 318 321 323 325 327 327 330 332 336 338 340 340 338 337 336 334 335 335 338 336 335 340 342 343 342 345
295 292 299 304 303 301 299 298 290 287 284 282 287 291 293 300 305 310 314 317 322 326 327 328 330 333 335 339 340 341 339 337 337 336 336 337 338 339 339 342 340 342 344 345
300 294 296 299 297 297 294 291 289 289 287 284 284 289 297 303 306 305 310 316 320 322 325 327 329 332 335 339 339 339 339 337 337 338 338 339 340 342 344 343 341 341 344 346
303 294 292 297 301 300 296 293 290 288 286 285 286 289 301 305 309 310 313 317 319 322 324 327 329 332 334 338 339 339 338 338 338 341 341 340 341 342 342 343 344 342 342 345
304 295 292 295 296 302 301 302 290 289 287 286 287 291 302 304 307 310 314 318 320 320 322 325 328 332 334 336 338 339 339 339 340 340 342 342 341 342 342 343 344 346 345 344
310 296 296 292 293 299 299 303 303 295 292 290 291 295 300 303 304 307 310 314 320 320 321 324 327 331 334 336 337 339 339 340 341 341 342 342 342 343 343 344 344 345 347 344
298 291 296 298 300 300 302 304 304 299 298 294 298 295 301 303 304 310 311 316 318 319 320 325 327 329 333 335 337 339 341 341 342 341 342 342 344 345 345 345 345 346 346 346
296 290 292 292 296 299 299 302 304 304 304 298 298 298 304 317 315 311 313 316 316 318 319 326 329 330 332 335 337 339 340 342 343 342 342 343 343 344 344 345 345 346 347 346
292 291 289 286 293 294 289 294 298 300 304 303 299 303 317 315 316 315 315 317 318 318 318 324 328 330 333 336 338 337 340 343 342 342 343 343 343 342 344 346 346 344 345 343
291 289 288 285 288 282 291 299 301 304 311 314 312 315 316 316 316 317 319 318 319 319 320 322 327 330 332 338 339 341 343 343 342 342 343 344 344 344 345 345 343 343 345 341
292 290 287 285 284 289 295 301 304 301 300 315 312 313 314 314 315 315 319 320 320 321 325 326 328 330 332 338 340 341 342 342 342 342 342 344 347 346 345 345 343 343 344 342
292 290 290 285 284 283 293 305 309 309 297 313 314 311 311 312 307 310 317 319 323 327 329 330 332 333 333 338 341 341 342 342 339 342 343 346 346 347 346 344 343 341 340 342
290 290 289 288 286 290 302 305 309 295 295 312 314 312 311 308 311 315 317 321 326 329 330 334 334 333 333 339 341 340 341 341 343 345 346 345 346 344 346 343 343 343 342 343
287 287 287 288 285 287 305 303 299 304 309 311 313 314 313 313 315 316 316 321 324 323 329 336 335 335 336 340 341 339 339 343 343 344 345 345 344 345 345 344 344 343 342 339
289 294 290 294 292 301 305 306 307 308 307 309 312 314 315 315 315 316 315 317 322 324 325 333 337 337 339 340 341 338 341 342 343 344 345 345 344 346 346 344 341 340 339 337
294 297 294 294 295 300 303 305 307 308 309 312 315 316 317 315 316 316 316 316 316 322 326 331 337 337 338 340 341 341 342 345 344 343 343 344 344 344 344 343 341 338 336 334
294 296 293 293 297 300 302 304 307 309 309 311 314 317 317 316 316 317 316 317 316 321 325 330 332 336 339 340 341 343 344 345 343 341 343 344 343 342 338 336 334 336 336 331
296 294 294 293 298 298 300 304 307 307 307 309 310 315 318 317 316 317 317 318 317 321 324 328 331 336 340 341 341 342 346 345 342 340 340 339 339 338 337 331 326 306 307 303
Wind_Speed
3 5 5 8 6 5 3 4 6 18 8 6 11 15 17 7 8 8 10 11 11 13 9 10 9 10 11 9 9 9 7 5 6 3 3 3 3 2 3 3 4 5 4 4
6 6 10 3 3 4 3 5 9 13 7 8 3 13 11 8 9 13 13 11 12 7 8 8 10 10 12 12 10 8 7 7 5 4 3 3 3 2 2 2 3 4 4 4
7 9 4 3 2 4 4 5 5 7 7 1 3 7 7 2 3 7 10 8 8 13 13 11 12 12 11 12 12 10 8 8 6 6 4 2 3 3 2 2 2 3 4 5
7 5 7 3 5 7 6 6 5 7 1 4 4 8 6 4 8 7 8 9 11 11 9 11 13 13 14 13 11 10 9 8 6 7 6 5 4 3 3 3 2 3 5 5
11 3 5 3 7 6 10 4 5 4 3 2 2 2 10 4 8 8 12 12 12 13 14 13 15 15 12 12 11 10 9 7 6 8 7 6 4 3 2 2 3 3 3 4
8 1 6 8 5 6 4 4 3 4 3 3 4 3 11 3 7 5 4 12 14 13 13 13 11 11 13 11 12 10 10 9 7 8 6 8 8 5 4 3 3 3 2 3
6 7 6 5 5 1 5 6 5 6 6 7 3 1 11 11 9 8 8 10 14 13 12 12 12 13 14 15 14 11 12 10 9 10 8 7 8 6 7 6 4 4 2 3
1 10 2 1 8 5 5 8 7 5 4 7 2 5 8 6 9 6 7 6 9 13 14 15 16 15 15 16 16 13 13 10 11 11 11 7 7 5 5 4 4 4 4 3
3 9 4 6 5 7 3 4 5 6 3 1 3 9 12 3 8 2 3 6 12 14 15 16 16 18 17 18 19 18 15 12 12 12 10 8 7 6 6 5 4 3 4 3
3 5 5 9 3 1 6 7 2 3 2 3 5 6 7 10 11 2 5 8 9 9 11 12 13 16 15 18 16 12 13 15 14 12 10 9 9 7 6 5 5 5 5 5
0 3 8 2 3 6 2 1 6 5 5 6 2 8 8 7 11 12 9 7 9 7 11 12 13 13 14 14 16 14 14 13 13 12 10 10 10 8 6 6 5 5 4 5
3 3 3 8 4 3 2 3 5 6 4 1 4 9 4 7 10 8 10 3 7 7 8 9 9 12 15 17 16 17 15 14 13 13 11 11 9 8 8 7 6 5 6 4
3 2 4 10 6 6 6 3 4 5 3 5 6 8 4 8 10 8 8 8 5 6 7 7 8 14 16 17 16 16 16 15 12 12 11 10 10 9 9 9 7 6 6 5
4 2 6 7 5 1 4 3 2 2 2 6 6 8 9 11 10 14 14 9 5 8 8 7 9 12 15 15 13 14 14 13 10 8 9 10 11 10 9 8 7 7 5 4
5 3 4 7 6 4 7 8 7 6 7 6 6 8 9 9 9 14 9 8 9 7 9 8 10 10 11 13 13 12 12 12 14 14 12 12 9 8 7 7 7 7 6 6
2 4 1 7 9 11 12 12 9 11 12 8 7 10 5 7 8 8 10 8 10 7 7 9 7 8 11 15 15 14 12 14 13 11 10 9 8 9 10 9 8 7 8 7
5 5 2 6 4 5 8 11 15 10 8 9 9 8 4 7 10 8 8 8 15 9 8 10 12 11 11 14 15 12 15 12 10 6 7 9 10 9 9 7 5 7 8 5
4 4 3 4 4 5 8 6 8 6 2 2 4 4 5 8 14 17 7 7 14 12 9 8 11 11 11 10 11 10 12 10 13 10 5 8 9 9 8 9 7 6 3 4
3 4 1 2 3 7 8 6 6 6 6 1 4 7 7 11 11 2 7 13 11 12 10 6 7 8 10 13 13 13 13 14 11 11 12 8 10 9 8 7 7 5 3 2
5 5 3 2 3 5 4 5 6 3 5 4 4 5 8 9 6 5 20 17 14 9 10 5 6 6 10 10 12 14 15 15 14 13 15 12 12 10 10 8 11 6 4 4
4 3 3 5 6 7 3 13 6 3 4 5 4 6 5 3 3 13 16 13 8 6 8 6 5 7 8 11 14 14 13 15 16 12 12 13 13 12 9 8 4 5 6 5
4 3 3 0 3 8 4 9 4 4 7 6 7 5 6 7 9 8 10 11 11 12 11 5 5 6 8 12 12 12 15 11 9 10 11 11 10 8 8 10 6 7 6 5
4 5 3 6 6 5 1 9 7 6 13 12 9 8 6 10 8 9 11 10 10 9 9 6 3 5 6 8 10 11 7 9 9 9 9 7 6 6 8 9 8 6 5 5
4 3 4 3 4 8 11 10 6 6 6 12 13 13 8 13 11 9 10 10 9 7 5 7 2 5 5 6 7 7 8 8 9 8 8 8 8 7 6 4 5 6 5 5
7 3 4 7 9 12 13 10 9 7 6 10 14 13 13 12 11 7 8 7 10 8 5 4 4 3 3 6 4 5 8 8 7 7 7 8 7 7 6 4 3 4 3 3
6 7 4 8 10 9 13 14 11 11 12 12 11 11 10 9 10 8 8 4 6 9 5 3 3 0 4 7 7 6 6 10 9 6 5 5 6 6 6 6 4 8 7 5
Wind_Direction
9 54 242 250 194 201 236 241 260 289 253 240 222 251 264 185 223 213 199 196 204 217 217 194 172 162 151 152 154 161 160 163 142 144 159 145 169 165 192 195 194 192 195 198
16 266 248 188 190 210 221 279 283 282 289 180 148 250 270 202 214 210 204 195 203 174 179 171 160 162 168 162 163 159 170 163 161 153 139 148 149 167 174 171 198 193 192 203
175 236 111 161 267 299 246 211 273 242 338 280 4 286 261 281 229 211 221 185 183 180 180 178 174 171 166 165 164 170 168 166 164 156 131 104 98 84 93 173 189 202 180 198
242 255 232 234 248 162 299 182 250 275 138 246 136 286 279 297 281 227 212 185 182 176 184 184 174 177 173 175 161 162 158 165 171 166 167 158 159 147 183 185 179 199 189 192
242 220 196 195 225 158 237 329 299 308 193 1 307 61 271 343 293 255 218 197 190 186 180 187 183 184 177 162 166 157 155 169 171 175 185 162 152 156 143 148 184 222 199 190
245 281 171 217 268 178 261 309 38 51 82 12 266 137 287 250 237 286 232 201 187 189 186 194 181 162 172 158 148 163 166 182 175 174 190 171 172 173 154 165 197 210 194 182
331 260 243 178 301 64 96 57 335 349 4 226 275 73 239 275 270 246 227 196 193 187 179 183 167 168 170 164 168 178 168 185 184 183 186 187 173 182 193 181 195 195 188 199
185 317 183 87 182 189 189 154 163 234 230 263 295 254 264 228 288 311 223 179 181 190 185 187 179 174 174 169 175 176 167 183 187 189 195 190 180 184 203 193 186 213 200 203
187 264 266 195 174 138 239 208 189 111 4 43 266 297 302 295 312 93 263 163 191 195 194 195 181 177 171 174 185 182 174 176 192 192 186 189 191 188 200 202 195 212 210 208
249 283 239 279 167 146 173 164 59 13 194 231 294 283 241 309 313 326 235 219 224 191 196 191 186 181 179 179 185 178 177 183 188 185 186 187 195 196 195 174 207 216 217 201
169 143 286 22 205 215 66 301 51 120 136 167 205 266 217 258 285 297 274 203 233 197 190 188 189 178 173 176 177 180 179 180 185 187 183 181 190 195 186 185 201 215 207 201
351 133 281 242 281 296 171 127 131 127 230 225 160 269 244 277 287 289 287 199 209 180 190 192 178 167 171 176 177 181 182 186 190 185 185 183 187 185 192 197 197 208 217 205
325 348 356 337 352 11 50 346 118 113 89 201 144 259 290 320 331 328 300 301 165 176 176 183 165 175 178 179 182 182 182 188 183 179 185 188 186 187 198 206 196 194 203 215
109 139 185 203 227 203 292 321 326 129 153 173 229 285 313 309 311 316 317 294 210 178 179 194 195 185 183 179 175 179 179 180 166 164 187 194 190 192 199 198 187 197 208 213
99 247 227 245 252 266 248 258 237 221 232 195 243 216 254 273 291 294 291 305 282 171 160 182 191 190 175 174 173 177 173 170 168 175 182 197 194 189 181 188 190 191 194 209
14 257 206 273 266 248 252 253 230 234 240 246 252 265 222 284 291 289 301 295 278 250 175 173 178 169 183 177 181 173 175 179 167 161 187 180 178 186 191 192 189 187 206 203
184 177 114 262 316 326 296 237 233 230 197 193 201 225 358 307 310 295 323 315 298 282 192 180 178 188 184 190 173 168 164 162 179 144 171 187 177 190 191 166 175 208 209 188
188 134 150 262 24 234 244 293 277 252 215 333 312 312 309 283 289 287 294 335 326 296 243 192 179 183 186 181 179 141 159 166 143 157 179 216 184 193 181 165 175 211 157 186
155 133 195 205 207 287 306 19 17 35 291 84 307 314 317 310 293 183 37 351 313 309 276 233 200 175 167 169 163 163 161 174 176 170 189 185 210 193 170 186 165 148 144 205
72 74 118 75 223 256 259 323 317 267 283 1 335 314 329 336 4 299 339 334 323 325 322 257 172 134 144 151 155 163 169 179 202 173 167 214 208 186 185 169 171 186 166 199
352 356 209 217 231 279 292 307 289 203 277 324 308 293 306 342 227 298 314 324 314 309 311 289 174 153 152 147 151 165 170 191 198 163 176 192 190 183 180 165 176 154 169 163
192 228 239 78 240 265 356 356 35 276 304 278 295 285 290 288 297 297 316 332 319 336 330 326 161 150 156 158 158 170 186 189 163 158 163 176 175 166 153 153 154 158 141 137
268 191 208 196 238 256 236 238 266 270 286 296 280 279 276 297 302 307 313 327 322 319 319 318 186 152 158 162 166 174 186 153 154 161 159 159 146 139 148 143 145 140 142 146
271 194 221 333 276 274 299 287 242 274 267 297 291 280 277 283 294 298 303 317 322 304 319 324 51 167 166 168 173 163 145 147 156 152 140 142 147 143 136 123 140 142 155 165
200 177 226 256 280 279 271 268 282 279 281 293 293 269 268 275 288 279 288 311 311 297 310 339 355 36 132 126 118 113 134 144 137 137 147 148 143 140 133 116 149 169 164 162
187 211 205 261 242 241 271 284 276 273 284 266 262 287 273 254 264 256 270 264 283 303 291 264 298 130 107 108 114 116 143 144 138 132 141 155 141 148 152 151 139 52 54 32